, MO

(GMT )
Kansas City

Weather History for KMKC - August, 2013

Change the Weather History Date:

Tuesday, August 27, 2013

  Actual Average Record
Temperature  
Mean Temperature 86 °F -  
Max Temperature 96 °F 86 °F 98 °F (2007)
Min Temperature 78 °F 67 °F 66 °F (1999)
Cooling Degree Days 22    
Growing Degree Days 36 (Base 50)    
Moisture  
Dew Point 65 °F    
Average Humidity 51    
Maximum Humidity 68    
Minimum Humidity 33    
Precipitation  
Precipitation 0.00 in - - ()
Sea Level Pressure  
Sea Level Pressure 29.99 in    
Wind  
Wind Speed 10 mph (SW)    
Max Wind Speed 14 mph    
Max Gust Speed 22 mph    
Visibility 10 miles    
Events      
Averages and records for this station are not official NWS values.
T = Trace of Precipitation, MM = Missing Value Source: NWS Daily Summary

Daily Weather History Graph

Daily Weather History Graph

Search for Another Location

Airport or City:

Trip Planner

Search our weather history database for the weather conditions in past years. The results will help you decide how hot, cold, wet, or windy it might be!

Date:

Astronomy

Aug. 27, 2013 Rise Set
Actual Time 6:42 AM CDT 7:56 PM CDT
Civil Twilight 6:15 AM CDT 8:23 PM CDT
Nautical Twilight 5:41 AM CDT 8:56 PM CDT
Astronomical Twilight 5:07 AM CDT 9:31 PM CDT
Moon 11:53 PM CDT (8/27) 1:38 PM CDT (8/27)
Length of Visible Light 14h 08m
Length of Day
13h 13m
Waning Gibbous, 57% of the Moon is Illuminated
Aug 27
Waning Gibbous
Aug 28
Last Quarter
Sep 5
New
Sep 12
First Quarter
Sep 19
Full

Hourly Weather History & Observations

Time (CDT) Temp. Heat Index Dew Point Humidity Pressure Visibility Wind Dir Wind Speed Gust Speed Precip Events Conditions
12:54 AM 81.0 °F 84.1 °F 69.1 °F 67% 30.02 in 10.0 mi SSW 8.1 mph - N/A   Clear
1:54 AM 81.0 °F 83.8 °F 68.0 °F 65% 30.01 in 10.0 mi SSW 9.2 mph - N/A   Clear
2:54 AM 80.1 °F 82.7 °F 68.0 °F 67% 30.01 in 10.0 mi SSW 10.4 mph - N/A   Clear
3:54 AM 80.1 °F 82.1 °F 66.0 °F 62% 30.01 in 10.0 mi SSW 9.2 mph - N/A   Clear
4:54 AM 79.0 °F - 66.9 °F 66% 30.01 in 10.0 mi SSW 10.4 mph - N/A   Clear
5:54 AM 78.1 °F - 66.9 °F 68% 30.01 in 10.0 mi SW 11.5 mph - N/A   Clear
6:54 AM 78.1 °F - 64.9 °F 64% 30.02 in 10.0 mi SW 10.4 mph - N/A   Clear
7:54 AM 79.0 °F - 64.9 °F 62% 30.04 in 10.0 mi SW 11.5 mph - N/A   Clear
8:54 AM 82.0 °F 83.4 °F 64.0 °F 54% 30.03 in 10.0 mi SW 12.7 mph 19.6 mph N/A   Clear
9:54 AM 86.0 °F 87.3 °F 64.0 °F 48% 30.04 in 10.0 mi SW 11.5 mph - N/A   Clear
10:54 AM 88.0 °F 89.6 °F 64.9 °F 46% 30.04 in 10.0 mi SW 13.8 mph - N/A   Clear
11:54 AM 91.9 °F 94.1 °F 64.9 °F 41% 30.03 in 10.0 mi SSW 11.5 mph 21.9 mph N/A   Clear
12:54 PM 93.9 °F 96.1 °F 64.9 °F 38% 30.00 in 10.0 mi WSW 11.5 mph 19.6 mph N/A   Clear
1:54 PM 93.9 °F 96.1 °F 64.9 °F 38% 29.98 in 10.0 mi SW 13.8 mph 20.7 mph N/A   Clear
2:54 PM 95.0 °F 97.0 °F 64.0 °F 36% 29.97 in 10.0 mi WSW 12.7 mph 18.4 mph N/A   Clear
3:54 PM 95.0 °F 95.6 °F 62.1 °F 33% 29.96 in 10.0 mi WSW 10.4 mph - N/A   Partly Cloudy
4:54 PM 93.9 °F 95.2 °F 63.0 °F 36% 29.95 in 10.0 mi SSW 13.8 mph - N/A   Scattered Clouds
5:54 PM 93.0 °F 93.8 °F 62.1 °F 36% 29.95 in 10.0 mi SSW 11.5 mph - N/A   Partly Cloudy
6:54 PM 91.9 °F 91.8 °F 61.0 °F 35% 29.94 in 10.0 mi WSW 10.4 mph - N/A   Clear
7:54 PM 89.1 °F 89.0 °F 61.0 °F 39% 29.95 in 10.0 mi SSW 8.1 mph - N/A   Clear
8:54 PM 84.9 °F 85.4 °F 62.1 °F 46% 29.96 in 10.0 mi SSW 4.6 mph - N/A   Clear
9:54 PM 84.0 °F 85.4 °F 64.0 °F 51% 29.97 in 10.0 mi SW 6.9 mph - N/A   Clear
10:54 PM 82.0 °F 83.8 °F 64.9 °F 56% 29.97 in 10.0 mi SSW 6.9 mph - N/A   Clear
11:54 PM 81.0 °F 82.7 °F 64.9 °F 58% 29.96 in 10.0 mi SSW 9.2 mph - N/A   Clear